ASTERIA (43020 NORAD) Tracking and Keplerian Element Data

This shows tracking and keplerian element data for the satellite.

Feedback or suggestion? Click here.




ElementValue
Catalog43020
NameASTERIA
Epoch Orbit5680
Epoch Day323.836473
Epoch Year2018
RAAN310.4231
Inclination51.6418
Eccentricity0.0003179
Argument of Perigee49.0707
Mean Anonmoly311.0563
Mean Motion15.63108601
Decay Rate0.00017826
L11 43020U 98067NH 18323.83647300 .00017826 00000-0 19708-3 0 9999
L22 43020 51.6418 310.4231 0003179 49.0707 311.0563 15.63108601 56806

Live tracking and technical data element details for ASTERIA (NORAD 43020). ASTERIA can be tracked NOW for your location showing map with azimuth and elevation plus other details from your city location.

Track the satellite on the map from your city or location and see movement details for azimuth, elevation, latitude, longitude, range, height, and movement on the map or in text.







IsCatalogInMostPopularTable: catalog: 43020, numindb: 163
Update: records affected: 1



GetName: 43020 ASTERIA

Hit Count: updated at: Wed, 21 Nov 2018 05:47:42 GMT